This is the latest recevied weather packets stored in our database for station/object KC1ELF. If no packets are shown the sender has not sent any weather packets the latest 10 day(s).
| Time | Temp. | Humidity | Pressure | Rain* | Wind** | Luminosity | Snow |
|---|---|---|---|---|---|---|---|
| 1777840295 | 11.67° C | 44% | 1005.3 hPa | 0 mm | - | - | - |
| 1777839696 | 11.67° C | 45% | 1005.3 hPa | 0 mm | - | - | - |
| 1777839095 | 12.22° C | 45% | 1005.1 hPa | 0 mm | - | - | - |
| 1777838495 | 12.22° C | 47% | 1005.1 hPa | 0 mm | - | - | - |
| 1777837896 | 11.67° C | 47% | 1005 hPa | 0 mm | - | - | - |
| 1777837295 | 11.11° C | 47% | 1005.1 hPa | 0 mm | - | - | - |
| 1777836695 | 11.11° C | 46% | 1005.2 hPa | 0 mm | - | - | - |
| 1777836095 | 11.67° C | 46% | 1005.2 hPa | 0 mm | - | - | - |
| 1777835497 | 12.22° C | 47% | 1005.2 hPa | 0 mm | - | - | - |
| 1777834896 | 11.67° C | 48% | 1005.1 hPa | 0 mm | - | - | - |
| 1777834296 | 12.22° C | 47% | 1005.3 hPa | 0 mm | - | - | - |
| 1777833696 | 12.22° C | 48% | 1005.4 hPa | 0 mm | - | - | - |
| 1777833096 | 11.67° C | 50% | 1005.5 hPa | 0 mm | - | - | - |
| 1777832495 | 11.11° C | 52% | 1005.5 hPa | 0 mm | - | - | - |
| 1777831896 | 10.56° C | 53% | 1005.7 hPa | 0 mm | - | - | - |
| 1777831294 | 10.56° C | 56% | 1005.6 hPa | 0 mm | - | - | - |
| 1777830696 | 10.56° C | 58% | 1005.5 hPa | 0 mm | - | - | - |
| 1777830095 | 10.56° C | 58% | 1005.5 hPa | 0 mm | - | - | - |
| 1777829496 | 10° C | 57% | 1005.2 hPa | 0 mm | - | - | - |
| 1777828895 | 10.56° C | 58% | 1005.2 hPa | 0 mm | - | - | - |
| 1777828295 | 10.56° C | 61% | 1005.2 hPa | 0 mm | - | - | - |
| 1777827695 | 10° C | 61% | 1005.1 hPa | 0 mm | - | - | - |
| 1777827095 | 9.44° C | 64% | 1005.4 hPa | 0 mm | - | - | - |
| 1777826496 | 8.89° C | 63% | 1005.3 hPa | 0 mm | - | - | - |
| 1777825896 | 8.89° C | 64% | 1005.4 hPa | 0 mm | - | - | - |
* Rain latest hour (hover to see other rain measurements)
** Current wind speed in m/s (hover to see current wind gust speed)